Location: Misciano
(43.5000°N, 11.9500°E)
Time: 17:34:52
(UTC+00:00)

Cosmos 967 Rocket - Pass Details

Date: 13 August 2020
Orbit: 949 x 988 km, 65.8° (Epoch: 25 September)

Event Time Altitude Azimuth Distance (km) Brightness Sun altitude
Rises 21:16:04 0° 326° (NW) 3,682 8.9 -25.9°
Reaches altitude 10° 21:18:39 10° 326° (NW) 2,725 7.9 -26.2°
Maximum altitude 21:25:01 82° 239° (WSW) 979 4.4 -26.8°
Enters shadow 21:25:49 69° 171° (S) 1,027 4.3 -26.9°
